Weather History for Cando, ND

Change the Weather History Date:

Wednesday, November 7, 2012

  Actual Average (KDVL) Record (KDVL)
Temperature  
Mean Temperature 35 °F -  
Max Temperature 44 °F 37 °F 73 °F (1999)
Min Temperature 26 °F 20 °F -4 °F (1971)
Degree Days  
Heating Degree Days 30    
Moisture  
Dew Point 34 °F    
Average Humidity 90    
Maximum Humidity 100    
Minimum Humidity 76    
Precipitation  
Precipitation 0.00 in - - ()
Sea Level Pressure  
Sea Level Pressure 29.86 in    
Wind  
Wind Speed 9 mph (SSE)    
Max Wind Speed 22 mph    
Max Gust Speed 26 mph    
Visibility 10 miles    
Events      
Averages and records for this station are not official NWS values.
T = Trace of Precipitation, MM = Missing Value Source: NWS Daily Summary

Daily Weather History Graph

Daily Weather History Graph

Search for Another Location

Airport:

Trip Planner

Search our weather history database for the weather conditions in past years. The results will help you decide how hot, cold, wet, or windy it might be!

Date:

Astronomy

Nov. 07, 2012 Rise Set
Actual Time 7:33 AM CST 5:07 PM CST
Civil Twilight 6:59 AM CST 5:40 PM CST
Nautical Twilight 6:22 AM CST 6:18 PM CST
Astronomical Twilight 5:45 AM CST 6:54 PM CST
Moon No Moon Rise 1:47 PM CST (11/7)
Length of Visible Light 10h 41m
Length of Day
9h 34m
Last Quarter, 43% of the Moon is Illuminated
Nov 7
Last Quarter
Nov 13
New
Nov 20
First Quarter
Nov 28
Full
Dec 6
Last Quarter

Hourly Weather History & Observations

Time (CST) Temp. Windchill Dew Point Humidity Pressure Visibility Wind Dir Wind Speed Gust Speed Precip Events Conditions
12:15 AM 33.8 °F 28.6 °F 32.0 °F 93% 30.05 in 10.0 mi WNW 5.8 mph - N/A   Overcast
12:35 AM 33.8 °F 28.6 °F 32.0 °F 93% 30.04 in 10.0 mi WNW 5.8 mph - N/A   Overcast
12:55 AM 33.8 °F 30.8 °F 32.0 °F 93% 30.05 in 10.0 mi NNW 3.5 mph - N/A   Overcast
1:15 AM 33.8 °F 29.6 °F 32.0 °F 93% 30.04 in 10.0 mi North 4.6 mph - N/A   Overcast
1:35 AM 35.6 °F 30.7 °F 32.0 °F 87% 30.05 in 10.0 mi NW 5.8 mph - N/A   Overcast
1:55 AM 35.6 °F 30.7 °F 32.0 °F 87% 30.05 in 10.0 mi NNW 5.8 mph - N/A   Overcast
2:15 AM 33.8 °F 30.8 °F 32.0 °F 93% 30.04 in 10.0 mi NW 3.5 mph - N/A   Overcast
2:55 AM 33.8 °F 30.8 °F 32.0 °F 93% 30.04 in 10.0 mi NW 3.5 mph - N/A   Overcast
3:15 AM 32.0 °F 28.7 °F 32.0 °F 100% 30.04 in 10.0 mi North 3.5 mph - N/A   Scattered Clouds
3:35 AM 32.0 °F - 32.0 °F 100% 30.03 in 10.0 mi Calm Calm - N/A   Clear
3:55 AM 32.0 °F 28.7 °F 30.2 °F 93% 30.03 in 10.0 mi SSW 3.5 mph - N/A   Clear
7:15 AM 26.6 °F 22.6 °F 26.6 °F 100% 30.01 in 10.0 mi SE 3.5 mph - N/A   Partly Cloudy
7:35 AM 28.4 °F 23.3 °F 28.4 °F 100% 30.01 in 10.0 mi ESE 4.6 mph - N/A   Partly Cloudy
7:55 AM 28.4 °F 24.6 °F 28.4 °F 100% 30.02 in 10.0 mi SSE 3.5 mph - N/A   Mostly Cloudy
8:15 AM 30.2 °F 24.3 °F 30.2 °F 100% 30.01 in 10.0 mi SE 5.8 mph - N/A   Overcast
8:35 AM 32.0 °F 26.4 °F 32.0 °F 100% 30.00 in 10.0 mi SSE 5.8 mph - N/A   Overcast
8:55 AM 32.0 °F 26.4 °F 32.0 °F 100% 29.99 in 10.0 mi SSE 5.8 mph - N/A   Mostly Cloudy
9:15 AM 32.0 °F 26.4 °F 32.0 °F 100% 30.00 in 10.0 mi SSE 5.8 mph - N/A   Mostly Cloudy
9:35 AM 32.0 °F 24.8 °F 32.0 °F 100% 29.99 in 10.0 mi SE 8.1 mph - N/A   Overcast
9:55 AM 33.8 °F 26.4 °F 33.8 °F 100% 29.99 in 10.0 mi SSE 9.2 mph - N/A   Scattered Clouds
10:15 AM 33.8 °F 27.7 °F 33.8 °F 100% 29.99 in 10.0 mi SSE 6.9 mph - N/A   Scattered Clouds
10:35 AM 35.6 °F 29.2 °F 33.8 °F 93% 29.99 in 10.0 mi SSE 8.1 mph - N/A   Mostly Cloudy
10:55 AM 35.6 °F 27.1 °F 33.8 °F 93% 29.97 in 10.0 mi SSE 12.7 mph - N/A   Mostly Cloudy
11:15 AM 37.4 °F 28.9 °F 33.8 °F 87% 29.96 in 10.0 mi SSE 13.8 mph - N/A   Partly Cloudy
11:35 AM 39.2 °F 30.8 °F 33.8 °F 81% 29.95 in 10.0 mi SSE 15.0 mph - N/A   Clear
11:55 AM 39.2 °F 30.8 °F 35.6 °F 87% 29.93 in 10.0 mi SSE 15.0 mph 20.7 mph N/A   Clear
12:15 PM 39.2 °F 30.2 °F 35.6 °F 87% 29.91 in 10.0 mi SSE 17.3 mph 21.9 mph N/A   Clear
12:35 PM 39.2 °F 29.8 °F 35.6 °F 87% 29.89 in 10.0 mi SSE 18.4 mph - N/A   Clear
12:55 PM 41.0 °F 31.9 °F 35.6 °F 81% 29.87 in 10.0 mi SSE 19.6 mph 23.0 mph N/A   Scattered Clouds
1:15 PM 41.0 °F 32.8 °F 35.6 °F 81% 29.86 in 10.0 mi SSE 16.1 mph 23.0 mph N/A   Partly Cloudy
1:35 PM 41.0 °F 31.9 °F 35.6 °F 81% 29.85 in 10.0 mi SSE 19.6 mph 23.0 mph N/A   Clear
1:55 PM 42.8 °F 34.0 °F 35.6 °F 76% 29.83 in 10.0 mi SSE 20.7 mph 25.3 mph N/A   Partly Cloudy
2:15 PM - - - N/A% - - North - - N/A   Unknown
2:35 PM 44.6 °F 36.4 °F 37.4 °F 76% 29.80 in 10.0 mi SSE 20.7 mph 26.5 mph N/A   Unknown
2:55 PM 42.8 °F 33.8 °F 35.6 °F 76% 29.79 in 10.0 mi SSE 21.9 mph - N/A   Clear
3:15 PM 41.0 °F 32.5 °F 37.4 °F 87% 29.77 in 10.0 mi SSE 17.3 mph 24.2 mph N/A   Clear
3:35 PM 41.0 °F 32.5 °F 35.6 °F 81% 29.77 in 10.0 mi SSE 17.3 mph - N/A   Clear
3:55 PM 41.0 °F 32.2 °F 37.4 °F 87% 29.76 in 10.0 mi SE 18.4 mph 21.9 mph N/A   Clear
4:15 PM 41.0 °F 32.8 °F 35.6 °F 81% 29.75 in 10.0 mi SE 16.1 mph - N/A   Clear
4:35 PM 39.2 °F 30.2 °F 35.6 °F 87% 29.76 in 10.0 mi SSE 17.3 mph 21.9 mph N/A   Clear
4:55 PM 39.2 °F 30.2 °F 35.6 °F 87% 29.75 in 10.0 mi SSE 17.3 mph 24.2 mph N/A   Clear
5:15 PM 39.2 °F 29.8 °F 35.6 °F 87% 29.74 in 10.0 mi SSE 18.4 mph - N/A   Clear
5:35 PM 39.2 °F 30.2 °F 35.6 °F 87% 29.73 in 10.0 mi SSE 17.3 mph 23.0 mph N/A   Clear
5:55 PM 39.2 °F 30.5 °F 35.6 °F 87% 29.74 in 10.0 mi SSE 16.1 mph - N/A   Partly Cloudy
6:15 PM 39.2 °F 30.2 °F 35.6 °F 87% 29.73 in 10.0 mi SSE 17.3 mph - N/A   Partly Cloudy
6:35 PM 39.2 °F 31.2 °F 35.6 °F 87% 29.74 in 10.0 mi SSE 13.8 mph - N/A   Clear
6:55 PM 39.2 °F 30.5 °F 35.6 °F 87% 29.72 in 10.0 mi SSE 16.1 mph 21.9 mph N/A   Partly Cloudy
7:15 PM 39.2 °F 30.5 °F 35.6 °F 87% 29.72 in 10.0 mi SSE 16.1 mph 21.9 mph N/A   Partly Cloudy
7:35 PM 39.2 °F 30.5 °F 35.6 °F 87% 29.72 in 10.0 mi South 16.1 mph - N/A   Clear
7:55 PM 39.2 °F 30.2 °F 35.6 °F 87% 29.71 in 10.0 mi South 17.3 mph 23.0 mph N/A   Clear
8:15 PM 39.2 °F 29.8 °F 35.6 °F 87% 29.70 in 10.0 mi South 18.4 mph - N/A   Clear
8:35 PM 39.2 °F 30.5 °F 35.6 °F 87% 29.69 in 10.0 mi South 16.1 mph 23.0 mph N/A   Partly Cloudy
8:55 PM 39.2 °F 30.5 °F 37.4 °F 93% 29.68 in 10.0 mi South 16.1 mph - N/A   Clear
9:15 PM 39.2 °F 31.2 °F 37.4 °F 93% 29.69 in 10.0 mi South 13.8 mph 18.4 mph N/A   Scattered Clouds
9:35 PM 41.0 °F 33.5 °F 37.4 °F 87% 29.70 in 10.0 mi South 13.8 mph - N/A   Mostly Cloudy
9:55 PM 39.2 °F 31.6 °F 37.4 °F 93% 29.70 in 10.0 mi South 12.7 mph - N/A   Partly Cloudy
10:15 PM 39.2 °F 32.0 °F 37.4 °F 93% 29.69 in 10.0 mi South 11.5 mph - N/A   Partly Cloudy
10:35 PM 39.2 °F 32.5 °F 37.4 °F 93% 29.69 in 10.0 mi South 10.4 mph - N/A   Partly Cloudy
10:55 PM 37.4 °F 32.1 °F 35.6 °F 93% 29.70 in 10.0 mi SSW 6.9 mph - N/A   Clear
11:15 PM 37.4 °F 33.8 °F 35.6 °F 93% 29.70 in 10.0 mi SSW 4.6 mph - N/A   Clear
11:35 PM 37.4 °F 33.8 °F 35.6 °F 93% 29.70 in 10.0 mi SSW 4.6 mph - N/A   Partly Cloudy
11:55 PM 37.4 °F 33.8 °F 35.6 °F 93% 29.70 in 10.0 mi South 4.6 mph - N/A   Mostly Cloudy